contact:dominique.lefevre@mio.osupytheas.fr, maurice.libes@osupytheas.fr, didier.mallarino@osupytheas.fr
Project:EMSO http://www.emso-fr.org/EMSO-France
Depth: 2436.0 m
Title:EMSO Ligure Ouest : Data MII capteur MICROCAT
DateTime_Computer,Latitude,Longitude,Temperature,Conductivity,Pressure,DateTime_Instrument
DateTime_Computer,Latitude,Longitude,degC,S m-1,dbar,DateTime_Instrument
2020-01-07T00:02:07Z,42.805,6.029,13.2964,4.59968,2469.947,2020-1-07T02:02:39Z
2020-01-07T00:05:10Z,42.805,6.029,13.2960,4.59968,2469.923,2020-1-07T02:05:42Z
2020-01-07T00:08:13Z,42.805,6.029,13.2962,4.59967,2469.9,2020-1-07T02:08:45Z
2020-01-07T00:11:17Z,42.805,6.029,13.2962,4.59966,2469.914,2020-1-07T02:11:48Z
2020-01-07T00:14:20Z,42.805,6.029,13.2960,4.59967,2469.937,2020-1-07T02:14:52Z
2020-01-07T00:17:23Z,42.805,6.029,13.2964,4.59970,2469.923,2020-1-07T02:17:55Z
2020-01-07T00:20:26Z,42.805,6.029,13.2965,4.59969,2469.923,2020-1-07T02:20:58Z
2020-01-07T00:23:29Z,42.805,6.029,13.2964,4.59970,2469.923,2020-1-07T02:24:01Z
2020-01-07T00:26:33Z,42.805,6.029,13.2962,4.59975,2469.96,2020-1-07T02:27:04Z
2020-01-07T00:29:36Z,42.805,6.029,13.2963,4.59971,2469.914,2020-1-07T02:30:08Z
2020-01-07T00:32:39Z,42.805,6.029,13.2961,4.59978,2469.923,2020-1-07T02:33:11Z
2020-01-07T00:35:42Z,42.805,6.029,13.2961,4.59974,2469.933,2020-1-07T02:36:14Z
2020-01-07T00:38:45Z,42.805,6.029,13.2962,4.59973,2469.923,2020-1-07T02:39:17Z
2020-01-07T00:41:49Z,42.805,6.029,13.2959,4.59973,2469.947,2020-1-07T02:42:20Z
2020-01-07T00:44:52Z,42.805,6.029,13.2964,4.59972,2469.947,2020-1-07T02:45:24Z
2020-01-07T00:47:55Z,42.805,6.029,13.2960,4.59979,2469.947,2020-1-07T02:48:27Z
2020-01-07T00:50:58Z,42.805,6.029,13.2960,4.59975,2469.923,2020-1-07T02:51:30Z
2020-01-07T00:54:01Z,42.805,6.029,13.2961,4.59981,2469.97,2020-1-07T02:54:33Z
2020-01-07T00:57:05Z,42.805,6.029,13.2963,4.59974,2469.937,2020-1-07T02:57:36Z
2020-01-07T01:00:08Z,42.805,6.029,13.2963,4.59978,2469.947,2020-1-07T03:00:40Z
2020-01-07T01:03:11Z,42.805,6.029,13.2959,4.59978,2469.947,2020-1-07T03:03:43Z
2020-01-07T01:06:14Z,42.805,6.029,13.2962,4.59983,2469.947,2020-1-07T03:06:46Z
2020-01-07T01:09:18Z,42.805,6.029,13.2962,4.59983,2469.97,2020-1-07T03:09:49Z
2020-01-07T01:12:21Z,42.805,6.029,13.2964,4.59983,2469.984,2020-1-07T03:12:53Z
2020-01-07T01:15:24Z,42.805,6.029,13.2961,4.59996,2469.97,2020-1-07T03:15:56Z
2020-01-07T01:18:27Z,42.805,6.029,13.2962,4.59991,2469.984,2020-1-07T03:18:59Z
2020-01-07T01:21:30Z,42.805,6.029,13.2962,4.60002,2469.984,2020-1-07T03:22:02Z
2020-01-07T01:24:34Z,42.805,6.029,13.2962,4.59999,2469.97,2020-1-07T03:25:05Z
2020-01-07T01:27:37Z,42.805,6.029,13.2966,4.59993,2469.984,2020-1-07T03:28:09Z
2020-01-07T01:30:40Z,42.805,6.029,13.2961,4.60001,2469.993,2020-1-07T03:31:12Z
2020-01-07T01:33:43Z,42.805,6.029,13.2964,4.59995,2469.96,2020-1-07T03:34:15Z
2020-01-07T01:36:47Z,42.805,6.029,13.2966,4.60006,2469.947,2020-1-07T03:37:19Z
2020-01-07T01:39:50Z,42.805,6.029,13.2966,4.59986,2469.984,2020-1-07T03:40:22Z
2020-01-07T01:42:53Z,42.805,6.029,13.2962,4.59980,2469.993,2020-1-07T03:43:25Z
2020-01-07T01:45:56Z,42.805,6.029,13.2962,4.59979,2469.97,2020-1-07T03:46:28Z
2020-01-07T01:49:00Z,42.805,6.029,13.2962,4.59986,2470.007,2020-1-07T03:49:31Z
2020-01-07T01:52:03Z,42.805,6.029,13.2965,4.59985,2469.993,2020-1-07T03:52:35Z
2020-01-07T01:55:06Z,42.805,6.029,13.2961,4.59999,2470.007,2020-1-07T03:55:38Z
2020-01-07T01:58:09Z,42.805,6.029,13.2961,4.59994,2469.993,2020-1-07T03:58:41Z
2020-01-07T02:01:13Z,42.805,6.029,13.2962,4.59988,2470.03,2020-1-07T04:01:44Z
2020-01-07T02:04:16Z,42.805,6.029,13.2960,4.60011,2469.993,2020-1-07T04:04:48Z
2020-01-07T02:07:19Z,42.805,6.029,13.2961,4.60011,2470.017,2020-1-07T04:07:51Z
2020-01-07T02:10:22Z,42.805,6.029,13.2966,4.60024,2470.017,2020-1-07T04:10:54Z
2020-01-07T02:13:25Z,42.805,6.029,13.2968,4.60015,2470.03,2020-1-07T04:13:57Z
2020-01-07T02:16:28Z,42.805,6.029,13.2965,4.60001,2469.993,2020-1-07T04:17:00Z
2020-01-07T02:19:32Z,42.805,6.029,13.2961,4.60020,2470.017,2020-1-07T04:20:03Z
2020-01-07T02:22:35Z,42.805,6.029,13.2962,4.59997,2470.017,2020-1-07T04:23:07Z
2020-01-07T02:25:38Z,42.805,6.029,13.2968,4.60047,2470.03,2020-1-07T04:26:10Z
2020-01-07T02:28:42Z,42.805,6.029,13.2966,4.60087,2469.993,2020-1-07T04:29:14Z
2020-01-07T02:31:45Z,42.805,6.029,13.2961,4.60100,2470.017,2020-1-07T04:32:17Z
2020-01-07T02:34:48Z,42.805,6.029,13.2964,4.60066,2470.017,2020-1-07T04:35:20Z
2020-01-07T02:37:51Z,42.805,6.029,13.2973,4.60089,2470.017,2020-1-07T04:38:23Z
2020-01-07T02:40:55Z,42.805,6.029,13.2967,4.60092,2470.03,2020-1-07T04:41:26Z
2020-01-07T02:43:58Z,42.805,6.029,13.2968,4.60038,2470.053,2020-1-07T04:44:30Z
2020-01-07T02:47:01Z,42.805,6.029,13.2963,4.60006,2470.017,2020-1-07T04:47:33Z
2020-01-07T02:50:04Z,42.805,6.029,13.2962,4.60040,2470.017,2020-1-07T04:50:36Z
2020-01-07T02:53:08Z,42.805,6.029,13.2967,4.60052,2469.993,2020-1-07T04:53:39Z
2020-01-07T02:56:11Z,42.805,6.029,13.2959,4.60051,2470.017,2020-1-07T04:56:43Z
2020-01-07T02:59:14Z,42.805,6.029,13.2958,4.60044,2470.03,2020-1-07T04:59:46Z
2020-01-07T03:02:17Z,42.805,6.029,13.2969,4.60058,2470.017,2020-1-07T05:02:49Z
2020-01-07T03:05:21Z,42.805,6.029,13.2968,4.60072,2470.03,2020-1-07T05:05:53Z
2020-01-07T03:08:24Z,42.805,6.029,13.2967,4.60111,2470.053,2020-1-07T05:08:56Z
2020-01-07T03:11:27Z,42.805,6.029,13.2964,4.60062,2470.04,2020-1-07T05:11:59Z
2020-01-07T03:14:30Z,42.805,6.029,13.2968,4.60072,2470.077,2020-1-07T05:15:02Z
2020-01-07T03:17:34Z,42.805,6.029,13.2967,4.60093,2470.04,2020-1-07T05:18:05Z
2020-01-07T03:20:37Z,42.805,6.029,13.2963,4.60095,2470.04,2020-1-07T05:21:09Z
2020-01-07T03:23:40Z,42.805,6.029,13.2963,4.60046,2470.04,2020-1-07T05:24:12Z
2020-01-07T03:26:43Z,42.805,6.029,13.2962,4.60044,2470.04,2020-1-07T05:27:15Z
2020-01-07T03:29:46Z,42.805,6.029,13.2964,4.60029,2470.053,2020-1-07T05:30:18Z
2020-01-07T03:32:50Z,42.805,6.029,13.2966,4.60041,2470.077,2020-1-07T05:33:21Z
2020-01-07T03:35:53Z,42.805,6.029,13.2964,4.60055,2470.063,2020-1-07T05:36:25Z
2020-01-07T03:38:56Z,42.805,6.029,13.2964,4.60056,2470.063,2020-1-07T05:39:28Z
2020-01-07T03:41:59Z,42.805,6.029,13.2964,4.60070,2470.063,2020-1-07T05:42:31Z
2020-01-07T03:45:03Z,42.805,6.029,13.2964,4.60034,2470.077,2020-1-07T05:45:34Z
2020-01-07T03:48:06Z,42.805,6.029,13.2987,4.60050,2470.087,2020-1-07T05:48:38Z
2020-01-07T03:51:09Z,42.805,6.029,13.2968,4.60057,2470.04,2020-1-07T05:51:41Z
2020-01-07T03:54:12Z,42.805,6.029,13.2986,4.60046,2470.063,2020-1-07T05:54:44Z
2020-01-07T03:57:16Z,42.805,6.029,13.2971,4.60055,2470.1,2020-1-07T05:57:47Z
2020-01-07T04:00:19Z,42.805,6.029,13.2964,4.60067,2470.077,2020-1-07T06:00:51Z
2020-01-07T04:03:22Z,42.805,6.029,13.2967,4.60109,2470.1,2020-1-07T06:03:54Z
2020-01-07T04:06:25Z,42.805,6.029,13.2964,4.60107,2470.087,2020-1-07T06:06:57Z
2020-01-07T04:09:29Z,42.805,6.029,13.2968,4.60072,2470.053,2020-1-07T06:10:00Z
2020-01-07T04:12:32Z,42.805,6.029,13.2971,4.60041,2470.077,2020-1-07T06:13:04Z
2020-01-07T04:15:35Z,42.805,6.029,13.2976,4.60031,2470.063,2020-1-07T06:16:07Z
2020-01-07T04:18:38Z,42.805,6.029,13.3040,4.60033,2470.063,2020-1-07T06:19:10Z
2020-01-07T04:21:42Z,42.805,6.029,13.3035,4.60033,2470.053,2020-1-07T06:22:13Z
2020-01-07T04:24:45Z,42.805,6.029,13.3025,4.60039,2470.087,2020-1-07T06:25:17Z
2020-01-07T04:27:48Z,42.805,6.029,13.3024,4.60045,2470.053,2020-1-07T06:28:20Z
2020-01-07T04:30:51Z,42.805,6.029,13.3036,4.60044,2470.077,2020-1-07T06:31:23Z
2020-01-07T04:33:54Z,42.805,6.029,13.3046,4.60044,2470.063,2020-1-07T06:34:26Z
2020-01-07T04:36:58Z,42.805,6.029,13.3050,4.60029,2470.077,2020-1-07T06:37:29Z
2020-01-07T04:40:01Z,42.805,6.029,13.3052,4.60040,2470.053,2020-1-07T06:40:33Z
2020-01-07T04:43:04Z,42.805,6.029,13.3022,4.60040,2470.053,2020-1-07T06:43:36Z
2020-01-07T04:46:07Z,42.805,6.029,13.2974,4.60056,2470.04,2020-1-07T06:46:39Z
2020-01-07T04:49:11Z,42.805,6.029,13.2969,4.60105,2470.077,2020-1-07T06:49:43Z
2020-01-07T04:52:14Z,42.805,6.029,13.2968,4.60089,2470.053,2020-1-07T06:52:46Z
2020-01-07T04:55:17Z,42.805,6.029,13.2969,4.60027,2470.1,2020-1-07T06:55:49Z
2020-01-07T04:58:21Z,42.805,6.029,13.2964,4.60024,2470.063,2020-1-07T06:58:52Z
2020-01-07T05:01:24Z,42.805,6.029,13.2964,4.60011,2470.1,2020-1-07T07:01:56Z
2020-01-07T05:04:27Z,42.805,6.029,13.2967,4.60013,2470.087,2020-1-07T07:04:59Z
2020-01-07T05:07:30Z,42.805,6.029,13.2961,4.60033,2470.04,2020-1-07T07:08:02Z
2020-01-07T05:10:33Z,42.805,6.029,13.2965,4.60003,2470.053,2020-1-07T07:11:05Z
2020-01-07T05:13:37Z,42.805,6.029,13.2962,4.59996,2470.053,2020-1-07T07:14:09Z
2020-01-07T05:16:40Z,42.805,6.029,13.2965,4.59992,2470.1,2020-1-07T07:17:12Z
2020-01-07T05:19:43Z,42.805,6.029,13.2964,4.60005,2470.053,2020-1-07T07:20:15Z
2020-01-07T05:22:46Z,42.805,6.029,13.2967,4.59989,2470.077,2020-1-07T07:23:18Z
2020-01-07T05:25:49Z,42.805,6.029,13.2964,4.59988,2470.063,2020-1-07T07:26:21Z
2020-01-07T05:28:53Z,42.805,6.029,13.2965,4.60001,2470.063,2020-1-07T07:29:24Z
2020-01-07T05:31:56Z,42.805,6.029,13.2961,4.59997,2470.053,2020-1-07T07:32:28Z
2020-01-07T05:34:59Z,42.805,6.029,13.2963,4.60001,2470.04,2020-1-07T07:35:31Z
2020-01-07T05:38:02Z,42.805,6.029,13.2967,4.59991,2470.04,2020-1-07T07:38:34Z
2020-01-07T05:41:05Z,42.805,6.029,13.2964,4.60000,2470.063,2020-1-07T07:41:37Z
2020-01-07T05:44:09Z,42.805,6.029,13.2969,4.59979,2470.04,2020-1-07T07:44:41Z
2020-01-07T05:47:12Z,42.805,6.029,13.2966,4.59968,2470.063,2020-1-07T07:47:44Z
2020-01-07T05:50:15Z,42.805,6.029,13.2968,4.59973,2470.077,2020-1-07T07:50:47Z
2020-01-07T05:53:18Z,42.805,6.029,13.2961,4.59973,2470.063,2020-1-07T07:53:50Z
2020-01-07T05:56:22Z,42.805,6.029,13.2965,4.59969,2470.04,2020-1-07T07:56:54Z
2020-01-07T05:59:25Z,42.805,6.029,13.2970,4.59971,2470.087,2020-1-07T07:59:57Z
2020-01-07T06:02:28Z,42.805,6.029,13.2965,4.59973,2470.087,2020-1-07T08:03:00Z
2020-01-07T06:05:31Z,42.805,6.029,13.2967,4.59974,2470.1,2020-1-07T08:06:03Z
2020-01-07T06:08:35Z,42.805,6.029,13.2967,4.59976,2470.063,2020-1-07T08:09:06Z
2020-01-07T06:11:38Z,42.805,6.029,13.2964,4.59970,2470.087,2020-1-07T08:12:10Z
2020-01-07T06:14:41Z,42.805,6.029,13.2968,4.59975,2470.04,2020-1-07T08:15:13Z
2020-01-07T06:17:44Z,42.805,6.029,13.2967,4.59977,2470.077,2020-1-07T08:18:16Z
2020-01-07T06:20:47Z,42.805,6.029,13.2967,4.59971,2470.077,2020-1-07T08:21:19Z
2020-01-07T06:23:51Z,42.805,6.029,13.2966,4.59978,2470.077,2020-1-07T08:24:23Z
2020-01-07T06:26:54Z,42.805,6.029,13.2966,4.59974,2470.087,2020-1-07T08:27:26Z
2020-01-07T06:29:57Z,42.805,6.029,13.2964,4.59971,2470.063,2020-1-07T08:30:29Z
2020-01-07T06:33:00Z,42.805,6.029,13.2965,4.59983,2470.063,2020-1-07T08:33:32Z
2020-01-07T06:36:03Z,42.805,6.029,13.2963,4.59975,2470.077,2020-1-07T08:36:35Z
2020-01-07T06:39:07Z,42.805,6.029,13.2967,4.59973,2470.063,2020-1-07T08:39:38Z
2020-01-07T06:42:10Z,42.805,6.029,13.2965,4.59978,2470.063,2020-1-07T08:42:42Z
2020-01-07T06:45:13Z,42.805,6.029,13.2964,4.59979,2470.087,2020-1-07T08:45:45Z
2020-01-07T06:48:16Z,42.805,6.029,13.2967,4.59996,2470.087,2020-1-07T08:48:48Z
2020-01-07T06:51:20Z,42.805,6.029,13.2967,4.59985,2470.053,2020-1-07T08:51:51Z
2020-01-07T06:54:23Z,42.805,6.029,13.2966,4.59992,2470.063,2020-1-07T08:54:55Z
2020-01-07T06:57:26Z,42.805,6.029,13.2967,4.59978,2470.077,2020-1-07T08:57:58Z
2020-01-07T07:00:29Z,42.805,6.029,13.2967,4.59992,2470.053,2020-1-07T09:01:01Z
2020-01-07T07:03:33Z,42.805,6.029,13.2964,4.59993,2470.077,2020-1-07T09:04:04Z
2020-01-07T07:06:36Z,42.805,6.029,13.2963,4.59999,2470.087,2020-1-07T09:07:08Z
2020-01-07T07:09:39Z,42.805,6.029,13.2964,4.59987,2470.077,2020-1-07T09:10:11Z
2020-01-07T07:12:42Z,42.805,6.029,13.2970,4.59973,2470.063,2020-1-07T09:13:14Z
2020-01-07T07:15:46Z,42.805,6.029,13.2964,4.59968,2470.063,2020-1-07T09:16:17Z
2020-01-07T07:18:49Z,42.805,6.029,13.2967,4.59988,2470.063,2020-1-07T09:19:21Z
2020-01-07T07:21:52Z,42.805,6.029,13.2972,4.59973,2470.04,2020-1-07T09:22:24Z
2020-01-07T07:24:55Z,42.805,6.029,13.3012,4.59983,2470.077,2020-1-07T09:25:27Z
2020-01-07T07:27:58Z,42.805,6.029,13.2979,4.59988,2470.053,2020-1-07T09:28:30Z
2020-01-07T07:31:02Z,42.805,6.029,13.2993,4.59991,2470.063,2020-1-07T09:31:33Z
2020-01-07T07:34:05Z,42.805,6.029,13.3003,4.59993,2470.1,2020-1-07T09:34:37Z
2020-01-07T07:37:08Z,42.805,6.029,13.3008,4.59973,2470.053,2020-1-07T09:37:40Z
2020-01-07T07:40:11Z,42.805,6.029,13.3006,4.60031,2470.04,2020-1-07T09:40:43Z
2020-01-07T07:43:14Z,42.805,6.029,13.3012,4.60033,2470.04,2020-1-07T09:43:46Z
2020-01-07T07:46:18Z,42.805,6.029,13.3011,4.60018,2470.04,2020-1-07T09:46:50Z
2020-01-07T07:49:21Z,42.805,6.029,13.3014,4.60037,2470.03,2020-1-07T09:49:53Z
2020-01-07T07:52:24Z,42.805,6.029,13.3018,4.60000,2470.053,2020-1-07T09:52:56Z
2020-01-07T07:55:27Z,42.805,6.029,13.3025,4.59995,2470.053,2020-1-07T09:55:59Z
2020-01-07T07:58:31Z,42.805,6.029,13.3006,4.59979,2470.053,2020-1-07T09:59:03Z
2020-01-07T08:01:34Z,42.805,6.029,13.3034,4.59987,2470.04,2020-1-07T10:02:06Z
2020-01-07T08:04:37Z,42.805,6.029,13.3031,4.59990,2470.04,2020-1-07T10:05:09Z
2020-01-07T08:07:40Z,42.805,6.029,13.3004,4.59991,2470.04,2020-1-07T10:08:12Z
2020-01-07T08:10:44Z,42.805,6.029,13.3022,4.59982,2470.053,2020-1-07T10:11:15Z
2020-01-07T08:13:47Z,42.805,6.029,13.3019,4.59975,2470.03,2020-1-07T10:14:19Z
2020-01-07T08:16:50Z,42.805,6.029,13.3008,4.59981,2470.053,2020-1-07T10:17:22Z
2020-01-07T08:19:53Z,42.805,6.029,13.3011,4.60022,2470.03,2020-1-07T10:20:25Z
2020-01-07T08:22:56Z,42.805,6.029,13.3004,4.60030,2470.053,2020-1-07T10:23:28Z
2020-01-07T08:26:00Z,42.805,6.029,13.3011,4.59976,2470.053,2020-1-07T10:26:32Z
2020-01-07T08:29:03Z,42.805,6.029,13.2985,4.59983,2470.053,2020-1-07T10:29:35Z
2020-01-07T08:32:06Z,42.805,6.029,13.2999,4.59998,2470.04,2020-1-07T10:32:38Z
2020-01-07T08:35:09Z,42.805,6.029,13.3013,4.60010,2470.03,2020-1-07T10:35:41Z
2020-01-07T08:38:13Z,42.805,6.029,13.3018,4.60003,2470.04,2020-1-07T10:38:44Z
2020-01-07T08:41:16Z,42.805,6.029,13.3010,4.59996,2470.077,2020-1-07T10:41:48Z
2020-01-07T08:44:19Z,42.805,6.029,13.3022,4.59997,2470.053,2020-1-07T10:44:51Z
2020-01-07T08:47:22Z,42.805,6.029,13.3024,4.60012,2470.053,2020-1-07T10:47:54Z
2020-01-07T08:50:25Z,42.805,6.029,13.3027,4.60016,2470.053,2020-1-07T10:50:57Z
2020-01-07T08:53:29Z,42.805,6.029,13.3014,4.60019,2470.03,2020-1-07T10:54:00Z
2020-01-07T08:56:32Z,42.805,6.029,13.2990,4.60010,2470.053,2020-1-07T10:57:04Z
2020-01-07T08:59:35Z,42.805,6.029,13.2999,4.60016,2470.03,2020-1-07T11:00:07Z
2020-01-07T09:02:38Z,42.805,6.029,13.3004,4.60029,2470.03,2020-1-07T11:03:10Z
2020-01-07T09:05:41Z,42.805,6.029,13.3007,4.60025,2470.017,2020-1-07T11:06:13Z
2020-01-07T09:08:45Z,42.805,6.029,13.3025,4.60009,2470.017,2020-1-07T11:09:16Z
2020-01-07T09:11:48Z,42.805,6.029,13.3035,4.60015,2470.017,2020-1-07T11:12:20Z
2020-01-07T09:14:51Z,42.805,6.029,13.3050,4.60017,2470.03,2020-1-07T11:15:23Z
2020-01-07T09:17:54Z,42.805,6.029,13.3042,4.59999,2470.017,2020-1-07T11:18:26Z
2020-01-07T09:20:58Z,42.805,6.029,13.3043,4.60017,2470.03,2020-1-07T11:21:29Z
2020-01-07T09:24:01Z,42.805,6.029,13.3048,4.60009,2470.017,2020-1-07T11:24:33Z
2020-01-07T09:27:04Z,42.805,6.029,13.3046,4.60020,2470.007,2020-1-07T11:27:36Z
2020-01-07T09:30:07Z,42.805,6.029,13.3048,4.60027,2470.017,2020-1-07T11:30:39Z
2020-01-07T09:33:10Z,42.805,6.029,13.3048,4.60025,2470.017,2020-1-07T11:33:42Z
2020-01-07T09:36:14Z,42.805,6.029,13.3007,4.60015,2469.993,2020-1-07T11:36:46Z
2020-01-07T09:39:17Z,42.805,6.029,13.3019,4.60026,2469.97,2020-1-07T11:39:49Z
2020-01-07T09:42:20Z,42.805,6.029,13.3034,4.60029,2470.03,2020-1-07T11:42:52Z
2020-01-07T09:45:23Z,42.805,6.029,13.3070,4.60018,2470.007,2020-1-07T11:45:55Z
2020-01-07T09:48:27Z,42.805,6.029,13.3078,4.60021,2470.007,2020-1-07T11:48:58Z
2020-01-07T09:51:30Z,42.805,6.029,13.3053,4.60013,2469.993,2020-1-07T11:52:02Z
2020-01-07T09:54:33Z,42.805,6.029,13.3072,4.59998,2470.007,2020-1-07T11:55:05Z
2020-01-07T09:57:36Z,42.805,6.029,13.3019,4.59995,2470.007,2020-1-07T11:58:08Z
2020-01-07T10:00:39Z,42.805,6.029,13.3019,4.59996,2470.03,2020-1-07T12:01:11Z
2020-01-07T10:03:43Z,42.805,6.029,13.3018,4.60005,2469.993,2020-1-07T12:04:15Z
2020-01-07T10:06:46Z,42.805,6.029,13.3016,4.60004,2469.984,2020-1-07T12:07:18Z
2020-01-07T10:09:49Z,42.805,6.029,13.2984,4.59999,2470.007,2020-1-07T12:10:21Z
2020-01-07T10:12:53Z,42.805,6.029,13.2982,4.59998,2470.007,2020-1-07T12:13:24Z
2020-01-07T10:15:56Z,42.805,6.029,13.2982,4.59980,2470.017,2020-1-07T12:16:28Z
2020-01-07T10:18:59Z,42.805,6.029,13.3139,4.60011,2470.03,2020-1-07T12:19:31Z
2020-01-07T10:22:02Z,42.805,6.029,13.3011,4.60027,2470.007,2020-1-07T12:22:34Z
2020-01-07T10:25:05Z,42.805,6.029,13.3034,4.60051,2470.03,2020-1-07T12:25:37Z
2020-01-07T10:28:09Z,42.805,6.029,13.3031,4.60067,2469.96,2020-1-07T12:28:41Z
2020-01-07T10:31:12Z,42.805,6.029,13.3036,4.60072,2470.017,2020-1-07T12:31:44Z
2020-01-07T10:34:15Z,42.805,6.029,13.2974,4.60039,2470.03,2020-1-07T12:34:47Z
2020-01-07T10:37:18Z,42.805,6.029,13.2969,4.59985,2470.007,2020-1-07T12:37:50Z
2020-01-07T10:40:22Z,42.805,6.029,13.2979,4.59976,2470.007,2020-1-07T12:40:53Z
2020-01-07T10:43:25Z,42.805,6.029,13.2992,4.59995,2470.007,2020-1-07T12:43:57Z
2020-01-07T10:46:28Z,42.805,6.029,13.3018,4.60003,2469.97,2020-1-07T12:47:00Z
2020-01-07T10:49:31Z,42.805,6.029,13.3030,4.59993,2469.984,2020-1-07T12:50:03Z
2020-01-07T10:52:34Z,42.805,6.029,13.3024,4.60002,2469.993,2020-1-07T12:53:06Z
2020-01-07T10:55:38Z,42.805,6.029,13.3004,4.60014,2469.984,2020-1-07T12:56:09Z
2020-01-07T10:58:41Z,42.805,6.029,13.3024,4.60088,2469.993,2020-1-07T12:59:13Z
2020-01-07T11:01:44Z,42.805,6.029,13.3015,4.60006,2469.993,2020-1-07T13:02:16Z
2020-01-07T11:04:47Z,42.805,6.029,13.3001,4.60015,2469.984,2020-1-07T13:05:19Z
2020-01-07T11:07:50Z,42.805,6.029,13.3011,4.60020,2470.007,2020-1-07T13:08:22Z
2020-01-07T11:10:54Z,42.805,6.029,13.2990,4.59996,2469.97,2020-1-07T13:11:25Z
2020-01-07T11:13:57Z,42.805,6.029,13.3007,4.60007,2469.984,2020-1-07T13:14:29Z
2020-01-07T11:17:00Z,42.805,6.029,13.3011,4.60013,2469.984,2020-1-07T13:17:32Z
2020-01-07T11:20:03Z,42.805,6.029,13.3020,4.59996,2470.007,2020-1-07T13:20:35Z
2020-01-07T11:23:07Z,42.805,6.029,13.3021,4.59991,2470.007,2020-1-07T13:23:38Z
2020-01-07T11:26:10Z,42.805,6.029,13.3018,4.59989,2469.984,2020-1-07T13:26:42Z
2020-01-07T11:29:13Z,42.805,6.029,13.2975,4.60015,2470.007,2020-1-07T13:29:45Z
2020-01-07T11:32:16Z,42.805,6.029,13.2986,4.60019,2469.984,2020-1-07T13:32:48Z
2020-01-07T11:35:20Z,42.805,6.029,13.3009,4.60018,2469.984,2020-1-07T13:35:52Z
2020-01-07T11:38:23Z,42.805,6.029,13.3018,4.59994,2469.97,2020-1-07T13:38:55Z
2020-01-07T11:41:26Z,42.805,6.029,13.3031,4.59997,2470.007,2020-1-07T13:41:58Z
2020-01-07T11:44:30Z,42.805,6.029,13.3004,4.60032,2469.993,2020-1-07T13:45:01Z
2020-01-07T11:47:33Z,42.805,6.029,13.3015,4.60049,2469.947,2020-1-07T13:48:05Z
2020-01-07T11:50:36Z,42.805,6.029,13.3058,4.60016,2469.97,2020-1-07T13:51:08Z
2020-01-07T11:53:39Z,42.805,6.029,13.3018,4.60033,2469.97,2020-1-07T13:54:11Z
2020-01-07T11:56:42Z,42.805,6.029,13.3042,4.60014,2469.96,2020-1-07T13:57:14Z
2020-01-07T11:59:46Z,42.805,6.029,13.3011,4.60009,2469.97,2020-1-07T14:00:17Z
2020-01-07T12:02:49Z,42.805,6.029,13.3001,4.60014,2469.947,2020-1-07T14:03:21Z
2020-01-07T12:05:52Z,42.805,6.029,13.2984,4.60030,2469.97,2020-1-07T14:06:24Z
2020-01-07T12:08:55Z,42.805,6.029,13.2968,4.60019,2469.984,2020-1-07T14:09:27Z
2020-01-07T12:11:58Z,42.805,6.029,13.2966,4.60012,2469.97,2020-1-07T14:12:30Z
2020-01-07T12:15:02Z,42.805,6.029,13.2967,4.60032,2469.937,2020-1-07T14:15:34Z
2020-01-07T12:18:05Z,42.805,6.029,13.2964,4.60038,2469.96,2020-1-07T14:18:37Z
2020-01-07T12:21:08Z,42.805,6.029,13.2964,4.60042,2469.993,2020-1-07T14:21:40Z
2020-01-07T12:24:11Z,42.805,6.029,13.2973,4.60052,2469.97,2020-1-07T14:24:43Z
2020-01-07T12:27:15Z,42.805,6.029,13.2964,4.60016,2469.993,2020-1-07T14:27:46Z
2020-01-07T12:30:18Z,42.805,6.029,13.2971,4.59994,2469.97,2020-1-07T14:30:50Z
2020-01-07T12:33:21Z,42.805,6.029,13.2968,4.59999,2469.947,2020-1-07T14:33:53Z
2020-01-07T12:36:24Z,42.805,6.029,13.2965,4.60020,2469.97,2020-1-07T14:36:56Z
2020-01-07T12:39:28Z,42.805,6.029,13.2963,4.60061,2469.984,2020-1-07T14:40:00Z
2020-01-07T12:42:31Z,42.805,6.029,13.2961,4.59996,2469.984,2020-1-07T14:43:03Z
2020-01-07T12:45:34Z,42.805,6.029,13.2967,4.59997,2469.984,2020-1-07T14:46:06Z
2020-01-07T12:48:37Z,42.805,6.029,13.2964,4.59989,2469.993,2020-1-07T14:49:09Z
2020-01-07T12:51:40Z,42.805,6.029,13.2964,4.59982,2469.984,2020-1-07T14:52:12Z
2020-01-07T12:54:44Z,42.805,6.029,13.2966,4.59980,2469.993,2020-1-07T14:55:16Z
2020-01-07T12:57:47Z,42.805,6.029,13.2967,4.59980,2469.947,2020-1-07T14:58:19Z
2020-01-07T13:00:50Z,42.805,6.029,13.2965,4.59981,2469.97,2020-1-07T15:01:22Z
2020-01-07T13:03:53Z,42.805,6.029,13.2964,4.59983,2469.993,2020-1-07T15:04:25Z
2020-01-07T13:06:57Z,42.805,6.029,13.2965,4.59978,2469.984,2020-1-07T15:07:28Z
2020-01-07T13:10:00Z,42.805,6.029,13.2964,4.59973,2470.007,2020-1-07T15:10:32Z
2020-01-07T13:13:03Z,42.805,6.029,13.2971,4.59986,2469.97,2020-1-07T15:13:35Z
2020-01-07T13:16:06Z,42.805,6.029,13.2967,4.59985,2470.007,2020-1-07T15:16:38Z
2020-01-07T13:19:10Z,42.805,6.029,13.2967,4.59980,2470.007,2020-1-07T15:19:41Z
2020-01-07T13:22:13Z,42.805,6.029,13.2967,4.59991,2469.993,2020-1-07T15:22:45Z
2020-01-07T13:25:16Z,42.805,6.029,13.2964,4.59979,2470.007,2020-1-07T15:25:48Z
2020-01-07T13:28:19Z,42.805,6.029,13.2964,4.59973,2470.03,2020-1-07T15:28:51Z
2020-01-07T13:31:22Z,42.805,6.029,13.2967,4.59971,2470.007,2020-1-07T15:31:54Z
2020-01-07T13:34:25Z,42.805,6.029,13.2962,4.59973,2470.007,2020-1-07T15:34:57Z
2020-01-07T13:37:29Z,42.805,6.029,13.2959,4.59981,2470.03,2020-1-07T15:38:01Z
2020-01-07T13:40:32Z,42.805,6.029,13.2961,4.59970,2469.984,2020-1-07T15:41:04Z
2020-01-07T13:43:35Z,42.805,6.029,13.2961,4.59973,2470.017,2020-1-07T15:44:07Z
2020-01-07T13:46:38Z,42.805,6.029,13.2963,4.59973,2470.007,2020-1-07T15:47:10Z
2020-01-07T13:49:42Z,42.805,6.029,13.2965,4.59973,2469.97,2020-1-07T15:50:14Z
2020-01-07T13:52:45Z,42.805,6.029,13.2967,4.59971,2469.984,2020-1-07T15:53:17Z
2020-01-07T13:55:48Z,42.805,6.029,13.2963,4.59979,2470.017,2020-1-07T15:56:20Z
2020-01-07T13:58:51Z,42.805,6.029,13.2965,4.59969,2470.04,2020-1-07T15:59:23Z
2020-01-07T14:01:54Z,42.805,6.029,13.2960,4.59971,2470.03,2020-1-07T16:02:26Z
2020-01-07T14:04:58Z,42.805,6.029,13.2962,4.59969,2470.04,2020-1-07T16:05:30Z
2020-01-07T14:08:01Z,42.805,6.029,13.2961,4.59971,2470.017,2020-1-07T16:08:33Z
2020-01-07T14:11:04Z,42.805,6.029,13.2963,4.59971,2470.017,2020-1-07T16:11:36Z
2020-01-07T14:14:07Z,42.805,6.029,13.2964,4.59976,2470.017,2020-1-07T16:14:39Z
2020-01-07T14:17:11Z,42.805,6.029,13.2965,4.59969,2470.053,2020-1-07T16:17:43Z
2020-01-07T14:20:14Z,42.805,6.029,13.2961,4.59967,2470.03,2020-1-07T16:20:46Z
2020-01-07T14:23:17Z,42.805,6.029,13.2964,4.59968,2470.04,2020-1-07T16:23:49Z
2020-01-07T14:26:20Z,42.805,6.029,13.2966,4.59968,2470.03,2020-1-07T16:26:52Z
2020-01-07T14:29:24Z,42.805,6.029,13.2964,4.59971,2470.04,2020-1-07T16:29:55Z
2020-01-07T14:32:27Z,42.805,6.029,13.2964,4.59968,2470.04,2020-1-07T16:32:59Z
2020-01-07T14:35:30Z,42.805,6.029,13.2961,4.59966,2470.04,2020-1-07T16:36:02Z
2020-01-07T14:38:34Z,42.805,6.029,13.2964,4.59968,2469.993,2020-1-07T16:39:05Z
2020-01-07T14:41:37Z,42.805,6.029,13.2959,4.59973,2470.04,2020-1-07T16:42:09Z
2020-01-07T14:44:40Z,42.805,6.029,13.2965,4.59966,2470.053,2020-1-07T16:45:12Z
2020-01-07T14:47:43Z,42.805,6.029,13.2961,4.59966,2470.053,2020-1-07T16:48:15Z
2020-01-07T14:50:46Z,42.805,6.029,13.2960,4.59966,2470.03,2020-1-07T16:51:18Z
2020-01-07T14:53:50Z,42.805,6.029,13.2961,4.59966,2470.017,2020-1-07T16:54:22Z
2020-01-07T14:56:53Z,42.805,6.029,13.2964,4.59967,2470.04,2020-1-07T16:57:25Z
2020-01-07T14:59:56Z,42.805,6.029,13.2960,4.59969,2470.03,2020-1-07T17:00:28Z
2020-01-07T15:02:59Z,42.805,6.029,13.2964,4.59966,2470.077,2020-1-07T17:03:31Z
2020-01-07T15:06:03Z,42.805,6.029,13.2964,4.59968,2470.04,2020-1-07T17:06:34Z
2020-01-07T15:09:06Z,42.805,6.029,13.2960,4.59971,2470.077,2020-1-07T17:09:38Z
2020-01-07T15:12:09Z,42.805,6.029,13.2958,4.59967,2470.077,2020-1-07T17:12:41Z
2020-01-07T15:15:12Z,42.805,6.029,13.2959,4.59966,2470.03,2020-1-07T17:15:44Z